Hourly Weather Mansa Konko

Today, 16 April, Friday

Time Temperature Precipitation Wind Pressure Humidity
00:00 +28°C° 0 mm 2 mps 756 mmHg 40%
01:00 +28°C° 0 mm 2 mps 756 mmHg 41%
02:00 +27°C° 0 mm 3 mps 756 mmHg 41%
03:00 +26°C° 0 mm 2 mps 756 mmHg 43%
04:00 +26°C° 0 mm 2 mps 756 mmHg 44%
05:00 +25°C° 0 mm 2 mps 756 mmHg 46%
06:00 +27°C° 0 mm 2 mps 756 mmHg 42%
07:00 +28°C° 0 mm 3 mps 756 mmHg 37%
08:00 +30°C° 0 mm 3 mps 757 mmHg 32%
09:00 +34°C° 0 mm 3 mps 756 mmHg 26%
10:00 +37°C° 0 mm 3 mps 756 mmHg 20%
11:00 +40°C° 0 mm 3 mps 756 mmHg 14%
12:00 +42°C° 0 mm 3 mps 755 mmHg 12%
13:00 +42°C° 0 mm 2 mps 754 mmHg 11%
14:00 +45°C° 0 mm 2 mps 753 mmHg 9%
15:00 +43°C° 0 mm 2 mps 753 mmHg 10%
16:00 +44°C° 0 mm 3 mps 753 mmHg 10%
17:00 +44°C° 0 mm 3 mps 752 mmHg 10%
18:00 +41°C° 0 mm 4 mps 753 mmHg 18%
19:00 +37°C° 0 mm 4 mps 754 mmHg 25%
20:00 +34°C° 0 mm 5 mps 754 mmHg 32%
21:00 +32°C° 0 mm 5 mps 755 mmHg 32%
22:00 +30°C° 0 mm 4 mps 755 mmHg 32%
23:00 +29°C° 0 mm 4 mps 756 mmHg 32%

Tomorrow, 17 April, Saturday

Time Temperature Precipitation Wind Pressure Humidity
00:00 +28°C° 0 mm 4 mps 756 mmHg 34%
01:00 +27°C° 0 mm 3 mps 755 mmHg 36%
02:00 +26°C° 0 mm 3 mps 755 mmHg 39%
03:00 +26°C° 0 mm 2 mps 756 mmHg 40%
04:00 +25°C° 0 mm 2 mps 756 mmHg 42%
05:00 +25°C° 0 mm 2 mps 756 mmHg 44%
06:00 +27°C° 0 mm 2 mps 756 mmHg 39%
07:00 +28°C° 0 mm 3 mps 757 mmHg 34%
08:00 +30°C° 0 mm 3 mps 757 mmHg 29%
09:00 +34°C° 0 mm 3 mps 757 mmHg 24%
10:00 +37°C° 0 mm 3 mps 757 mmHg 18%
11:00 +40°C° 0 mm 3 mps 756 mmHg 12%
12:00 +43°C° 0 mm 3 mps 755 mmHg 11%
13:00 +44°C° 0 mm 3 mps 754 mmHg 10%
14:00 +45°C° 0 mm 3 mps 753 mmHg 8%
15:00 +45°C° 0 mm 3 mps 753 mmHg 8%
16:00 +45°C° 0 mm 3 mps 753 mmHg 9%
17:00 +45°C° 0 mm 4 mps 753 mmHg 9%
18:00 +41°C° 0 mm 4 mps 753 mmHg 17%
19:00 +37°C° 0 mm 4 mps 754 mmHg 25%
20:00 +33°C° 0 mm 5 mps 755 mmHg 34%
21:00 +32°C° 0 mm 4 mps 755 mmHg 34%
22:00 +30°C° 0 mm 3 mps 756 mmHg 34%
23:00 +29°C° 0 mm 2 mps 756 mmHg 34%

Day after tomorrow, 18 April, Sunday

Time Temperature Precipitation Wind Pressure Humidity
00:00 +28°C° 0 mm 2 mps 756 mmHg 35%
01:00 +28°C° 0 mm 2 mps 756 mmHg 36%
02:00 +27°C° 0 mm 2 mps 755 mmHg 37%
03:00 +27°C° 0 mm 2 mps 756 mmHg 38%
04:00 +26°C° 0 mm 2 mps 756 mmHg 40%
05:00 +26°C° 0 mm 2 mps 756 mmHg 41%
06:00 +27°C° 0 mm 2 mps 757 mmHg 36%
07:00 +29°C° 0 mm 2 mps 757 mmHg 32%
08:00 +30°C° 0 mm 2 mps 758 mmHg 27%
09:00 +35°C° 0 mm 3 mps 757 mmHg 22%
10:00 +38°C° 0 mm 3 mps 757 mmHg 16%
11:00 +42°C° 0 mm 4 mps 756 mmHg 11%
12:00 +43°C° 0 mm 4 mps 755 mmHg 10%
13:00 +45°C° 0 mm 4 mps 754 mmHg 9%
14:00 +46°C° 0 mm 3 mps 753 mmHg 8%
15:00 +46°C° 0 mm 3 mps 753 mmHg 8%
16:00 +46°C° 0 mm 3 mps 753 mmHg 8%
17:00 +45°C° 0 mm 3 mps 753 mmHg 8%
18:00 +42°C° 0 mm 3 mps 753 mmHg 13%
19:00 +38°C° 0 mm 3 mps 754 mmHg 18%
20:00 +35°C° 0 mm 3 mps 755 mmHg 23%
21:00 +34°C° 0 mm 3 mps 755 mmHg 25%
22:00 +33°C° 0 mm 3 mps 756 mmHg 28%
23:00 +31°C° 0 mm 2 mps 756 mmHg 30%

19 April, Monday

Time Temperature Precipitation Wind Pressure Humidity
00:00 +30°C° 0 mm 2 mps 756 mmHg 31%
01:00 +29°C° 0 mm 2 mps 756 mmHg 32%
02:00 +28°C° 0 mm 2 mps 756 mmHg 34%
03:00 +28°C° 0 mm 2 mps 756 mmHg 33%
04:00 +28°C° 0 mm 2 mps 756 mmHg 33%
05:00 +27°C° 0 mm 2 mps 756 mmHg 32%
06:00 +29°C° 0 mm 2 mps 757 mmHg 28%
07:00 +30°C° 0 mm 2 mps 757 mmHg 25%
08:00 +32°C° 0 mm 2 mps 758 mmHg 21%
09:00 +35°C° 0 mm 2 mps 758 mmHg 17%
10:00 +38°C° 0 mm 3 mps 757 mmHg 13%
11:00 +42°C° 0 mm 3 mps 757 mmHg 10%
12:00 +43°C° 0 mm 3 mps 756 mmHg 9%
13:00 +44°C° 0 mm 3 mps 755 mmHg 8%
14:00 +47°C° 0 mm 4 mps 754 mmHg 7%
15:00 +45°C° 0 mm 3 mps 754 mmHg 7%
16:00 +45°C° 0 mm 3 mps 754 mmHg 7%
17:00 +45°C° 0 mm 2 mps 753 mmHg 7%
18:00 +42°C° 0 mm 3 mps 754 mmHg 15%
19:00 +37°C° 0 mm 4 mps 755 mmHg 22%
20:00 +34°C° 0 mm 4 mps 755 mmHg 29%
21:00 +33°C° 0 mm 4 mps 756 mmHg 33%
22:00 +30°C° 0 mm 3 mps 756 mmHg 37%
23:00 +29°C° 0 mm 2 mps 756 mmHg 41%

20 April, Tuesday

Time Temperature Precipitation Wind Pressure Humidity
00:00 +28°C° 0 mm 2 mps 756 mmHg 42%
01:00 +27°C° 0 mm 2 mps 756 mmHg 43%
02:00 +27°C° 0 mm 2 mps 756 mmHg 44%
03:00 +26°C° 0 mm 2 mps 756 mmHg 46%
04:00 +26°C° 0 mm 2 mps 756 mmHg 47%
05:00 +25°C° 0 mm 2 mps 757 mmHg 49%
06:00 +27°C° 0 mm 2 mps 757 mmHg 43%
07:00 +29°C° 0 mm 1 mps 757 mmHg 36%
08:00 +30°C° 0 mm 1 mps 758 mmHg 30%
09:00 +33°C° 0 mm 1 mps 757 mmHg 24%
10:00 +36°C° 0 mm 1 mps 757 mmHg 19%
11:00 +40°C° 0 mm 1 mps 757 mmHg 13%
12:00 +41°C° 0 mm 2 mps 756 mmHg 12%
13:00 +42°C° 0 mm 2 mps 755 mmHg 10%
14:00 +43°C° 0 mm 2 mps 754 mmHg 9%
15:00 +44°C° 0 mm 3 mps 754 mmHg 10%
16:00 +44°C° 0 mm 3 mps 754 mmHg 10%
17:00 +43°C° 0 mm 3 mps 753 mmHg 11%
18:00 +40°C° 0 mm 4 mps 754 mmHg 20%
19:00 +35°C° 0 mm 5 mps 755 mmHg 30%
20:00 +30°C° 0 mm 5 mps 756 mmHg 39%
21:00 +29°C° 0 mm 5 mps 756 mmHg 44%
22:00 +28°C° 0 mm 4 mps 757 mmHg 49%
23:00 +27°C° 0 mm 3 mps 757 mmHg 53%

21 April, Wednesday

Time Temperature Precipitation Wind Pressure Humidity
00:00 +26°C° 0 mm 3 mps 757 mmHg 57%
01:00 +26°C° 0 mm 3 mps 757 mmHg 61%
02:00 +25°C° 0 mm 3 mps 756 mmHg 65%
03:00 +24°C° 0 mm 2 mps 756 mmHg 67%
04:00 +24°C° 0 mm 2 mps 756 mmHg 69%
05:00 +23°C° 0 mm 2 mps 756 mmHg 71%
06:00 +25°C° 0 mm 2 mps 757 mmHg 62%
07:00 +27°C° 0 mm 2 mps 758 mmHg 53%
08:00 +28°C° 0 mm 2 mps 758 mmHg 44%
09:00 +31°C° 0 mm 2 mps 758 mmHg 36%
10:00 +35°C° 0 mm 2 mps 758 mmHg 27%
11:00 +37°C° 0 mm 3 mps 757 mmHg 19%
12:00 +39°C° 0 mm 3 mps 756 mmHg 17%
13:00 +40°C° 0 mm 3 mps 755 mmHg 15%
14:00 +43°C° 0 mm 3 mps 754 mmHg 13%
15:00 +43°C° 0 mm 3 mps 754 mmHg 13%
16:00 +42°C° 0 mm 4 mps 754 mmHg 14%
17:00 +42°C° 0 mm 4 mps 754 mmHg 14%
18:00 +38°C° 0 mm 4 mps 754 mmHg 24%
19:00 +34°C° 0 mm 4 mps 755 mmHg 34%
20:00 +29°C° 0 mm 5 mps 756 mmHg 45%
21:00 +29°C° 0 mm 5 mps 756 mmHg 45%
22:00 +28°C° 0 mm 4 mps 756 mmHg 45%
23:00 +28°C° 0 mm 4 mps 757 mmHg 45%
Show more